Location: Chrząstowo
(52.0654°N, 17.1290°E)
Time: 16:01:39
(UTC+01:00)

Envisat - Pass Details

Date: 20 December 2019
Orbit: 764 x 766 km, 98.1° (Epoch: 28 January)

Event Time Altitude Azimuth Distance (km) Brightness Sun altitude
Rises 06:05:54 0° 19° (NNE) 3,247 6.3 -15.8°
Reaches altitude 10° 06:08:23 10° 28° (NNE) 2,316 5.6 -15.4°
Maximum altitude 06:13:07 37° 96° (E) 1,174 4.6 -14.7°
Drops below altitude 10° 06:17:48 10° 164° (SSE) 2,298 6.0 -14.0°
Sets 06:20:16 0° 172° (S) 3,219 6.6 -13.7°
